"Pseudo-MPEC" for P21Y3o6

Created 2024 Sep 8 13:22:21 UT using Find_Orb

Click here for an explanation of pseudo-MPECs

 
 Astrometry: 
     P21Y3o6* C2024 09 05.35755623 00 45.423+28 35 17.80   ~95Aq 21.91wXNEOCPF52
     P21Y3o6  C2024 09 05.37010823 00 44.671+28 35 05.85   ~95Aq 21.93wXNEOCPF52
     P21Y3o6  C2024 09 05.38262823 00 43.938+28 34 53.86   ~95Aq 22.18wXNEOCPF52
     P21Y3o6  C2024 09 05.48724823 00 37.663+28 33 12.29   ~95Jq 21.52GVNEOCPF51
     P21Y3o6  C2024 09 05.48789723 00 37.649+28 33 11.65   ~95Jq 21.85GVNEOCPF51
     P21Y3o6 KC2024 09 07.40594822 58 50.153+27 59 53.92   ~97A7 21.87GVNEOCPV06
     P21Y3o6 KC2024 09 07.40763622 58 50.052+27 59 52.15   ~97A7 21.48GVNEOCPV06
     P21Y3o6 KC2024 09 07.40932622 58 49.973+27 59 50.03   ~97A7 21.75GVNEOCPV06
     P21Y3o6 KC2024 09 07.41101422 58 49.847+27 59 48.34   ~97A7 21.45GVNEOCPV06
     P21Y3o6 1C2024 09 07.95289 22 58 19.21 +27 49 35.6    ~97Nb 20.9 VXNEOCP033
     P21Y3o6 1C2024 09 07.95651 22 58 19.01 +27 49 31.4    ~97Nb 21.2 VXNEOCP033
     P21Y3o6 1C2024 09 07.96012 22 58 18.79 +27 49 27.3    ~97Nb 21.1 VXNEOCP033
     P21Y3o6 1C2024 09 08.07335 22 58 11.85 +27 47 16.2    ~982M 21.8 VXNEOCP033
     P21Y3o6 1C2024 09 08.07696 22 58 11.63 +27 47 12.0    ~982M 21.9 VXNEOCP033
     P21Y3o6 1C2024 09 08.08058 22 58 11.40 +27 47 07.7    ~982M 21.8 VXNEOCP033
     P21Y3o6  C2024 09 08.33690022 57 57.379+27 42 16.21   ~98A7 21.96wXNEOCPF52
     P21Y3o6  C2024 09 08.35796322 57 56.050+27 41 51.70   ~98A7 22.01wXNEOCPF52
     P21Y3o6  C2024 09 08.36854322 57 55.384+27 41 39.50   ~98A7 22.04wXNEOCPF52

Station data:
(033) Karl Schwarzschild Observatory, Tautenburg  (N50.980139 E11.711240)
   Germany.  Observer B. Stecklum. 1.34-m f/3 Schmidt + CCD.
(F51) Pan-STARRS 1, Haleakala  (N20.707234 W156.255910)  US/Hawaii.
   Observers J. Bulger, T. Lowe, A. Schultz, M. Willman. Measurers K.
   Chambers, S. Chastel, T. de Boer, L. Denneau, J. Fairlamb, H. Flewelling,
   M. Huber, C.-C. Lin, E. Magnier, Y. Ramanjooloo, R. Wainscoat, R. Weryk.
   1.8-m Ritchey-Chrétien + CCD.
(F52) Pan-STARRS 2, Haleakala  (N20.707382 W156.255910)  US/Hawaii.
   Observers J. Bulger, T. Dukes, T. Lowe, A. Schultz, M. Willman. Measurers
   K. Chambers, S. Chastel, T. de Boer, L. Denneau, J. Fairlamb, H.
   Flewelling, M. Huber, C.-C. Lin, E. Magnier, Y. Ramanjooloo, R. Wainscoat,
   R. Weryk. 1.8-m Ritchey-Chrétien + CCD.
(V06) Catalina Sky Survey-Kuiper  (N32.416871 W110.732550)  US/Arizona.
   Observers T. A. Pruyne, B. M. Africano, E. J. Christensen, G. A. Farneth,
   D. C. Fuls, A. R. Gibbs, A. D. Grauer, H. Gröller, J. A. Johnson, R. A.
   Kowalski, S. M. Larson, G. J. Leonard, D. Rankin, R. L. Seaman, F. C.
   Shelly, K. W. Wierzchoś. 1.55-m reflector + CCD.

Orbital elements:  P21Y3o6
   Perihelion 2024 Dec 29.29032 +/- 0.435 TT =  6:58:03 (JD 2460673.79032)
Epoch 2024 Sep  8.0 TT = JDT 2460561.5   Earth MOID: 0.2395   Ma: 0.0921
M 328.98048974 +/- 0.9              (J2000 ecliptic)             AutoNEOCP
n   0.27624385 +/- 0.0073           Peri.  244.37323 +/- 0.033
a   2.33493230 +/- 0.0412           Node   194.45978 +/- 0.13
e   0.5532760 +/- 0.00869           Incl.   29.34372 +/- 0.26
P   3.56789                H 20.38  G  0.15   U  9.4
q 1.04307025 +/- 0.00266    Q 3.62679435 +/- 0.0841
From 18 observations 2024 Sept. 5-8; mean residual 0".09
Residuals in arcseconds: 
240905 F52  .02+  .02+    240907 V06  .11-  .09+    240908 033  .09+  .02+    
240905 F52  .09-  .01+    240907 V06  .21+  .13-    240908 033  .08+  .04+    
240905 F52  .06+  .02-    240907 V06  .10-  .08+    240908 033  .06-  .03-    
240905 F51  .16-  .01-    240907 033  .22-  .09+    240908 F52  .02-  .06+    
240905 F51  .17+  .01-    240907 033  .08+  .03+    240908 F52  .02-  .08-    
240907 V06  .14-  .04-    240907 033  .10+  .07+    240908 F52  .04+  .00     

Ephemerides (geocentric):
Date (UTC) HH   RA             Dec           delta  r     elong  mag " sig PA
---- --------  ------------   ------------  ------ ------ -----  --- --------
2024 09 08 13  22 57 44.968   +27 38 13.85  .70566 1.6437 146.7 21.7 .066   2
2024 09 08 14  22 57 42.531   +27 37 24.32  .70523 1.6434 146.8 21.7 .076 179
2024 09 08 15  22 57 40.091   +27 36 34.67  .70480 1.6431 146.8 21.7 .086 177
2024 09 08 16  22 57 37.650   +27 35 44.90  .70436 1.6428 146.8 21.7 .097 175
2024 09 08 17  22 57 35.207   +27 34 55.00  .70393 1.6425 146.9 21.7 .107 174
2024 09 08 18  22 57 32.762   +27 34 04.97  .70350 1.6421 146.9 21.7 .119 173
2024 09 08 19  22 57 30.315   +27 33 14.82  .70307 1.6418 146.9 21.7 .130 172
2024 09 08 20  22 57 27.867   +27 32 24.54  .70264 1.6415 146.9 21.7 .142 171
2024 09 08 21  22 57 25.416   +27 31 34.13  .70221 1.6412 147.0 21.7 .154 170
2024 09 08 22  22 57 22.963   +27 30 43.60  .70178 1.6409 147.0 21.7 .166 169
2024 09 08 23  22 57 20.509   +27 29 52.94  .70135 1.6406 147.0 21.7 .179 169
2024 09 09 00  22 57 18.053   +27 29 02.15  .70092 1.6403 147.0 21.7 .192 168
2024 09 09 01  22 57 15.595   +27 28 11.24  .70049 1.6400 147.1 21.7 .205 168
2024 09 09 02  22 57 13.135   +27 27 20.20  .70006 1.6397 147.1 21.7 .218 167
2024 09 09 03  22 57 10.673   +27 26 29.04  .69964 1.6393 147.1 21.7 .232 167
2024 09 09 04  22 57 08.209   +27 25 37.74  .69921 1.6390 147.1 21.7 .245 166
2024 09 09 05  22 57 05.744   +27 24 46.32  .69878 1.6387 147.2 21.7 .260 166
2024 09 09 06  22 57 03.277   +27 23 54.77  .69835 1.6384 147.2 21.7 .274 166
2024 09 09 07  22 57 00.808   +27 23 03.10  .69793 1.6381 147.2 21.6 .289 165
2024 09 09 08  22 56 58.337   +27 22 11.29  .69750 1.6378 147.2 21.6 .303 165
2024 09 09 09  22 56 55.864   +27 21 19.36  .69707 1.6375 147.3 21.6 .319 165
2024 09 09 10  22 56 53.390   +27 20 27.30  .69665 1.6372 147.3 21.6 .334 164
2024 09 09 11  22 56 50.914   +27 19 35.12  .69622 1.6368 147.3 21.6 .350 164
2024 09 09 12  22 56 48.436   +27 18 42.80  .69579 1.6365 147.3 21.6 .366 164
2024 09 09 13  22 56 45.956   +27 17 50.36  .69537 1.6362 147.4 21.6 .382 164
2024 09 09 14  22 56 43.475   +27 16 57.78  .69494 1.6359 147.4 21.6 .398 163
2024 09 09 15  22 56 40.992   +27 16 05.08  .69452 1.6356 147.4 21.6 .415 163
2024 09 09 16  22 56 38.507   +27 15 12.25  .69410 1.6353 147.4 21.6 .432 163
2024 09 09 17  22 56 36.020   +27 14 19.30  .69367 1.6350 147.5 21.6 .449 163
2024 09 09 18  22 56 33.532   +27 13 26.21  .69325 1.6347 147.5 21.6 .466 163
2024 09 09 19  22 56 31.042   +27 12 32.99  .69282 1.6344 147.5 21.6 .484 162
2024 09 09 20  22 56 28.550   +27 11 39.65  .69240 1.6340 147.5 21.6 .502 162
2024 09 09 21  22 56 26.056   +27 10 46.17  .69198 1.6337 147.6 21.6 .520 162
2024 09 09 22  22 56 23.561   +27 09 52.57  .69156 1.6334 147.6 21.6 .538 162
2024 09 09 23  22 56 21.064   +27 08 58.83  .69113 1.6331 147.6 21.6 .557 162
2024 09 10 00  22 56 18.566   +27 08 04.97  .69071 1.6328 147.6 21.6 .576 162
2024 09 10 01  22 56 16.065   +27 07 10.98  .69029 1.6325 147.7 21.6 .595 161
2024 09 10 02  22 56 13.564   +27 06 16.85  .68987 1.6322 147.7 21.6 .615 161
2024 09 10 03  22 56 11.060   +27 05 22.60  .68945 1.6319 147.7 21.6 .634 161
2024 09 10 04  22 56 08.555   +27 04 28.22  .68903 1.6316 147.7 21.6 .654 161
2024 09 10 05  22 56 06.048   +27 03 33.70  .68861 1.6312 147.7 21.6 .674 161
2024 09 10 06  22 56 03.540   +27 02 39.06  .68819 1.6309 147.8 21.6 .695 161
2024 09 10 07  22 56 01.029   +27 01 44.29  .68777 1.6306 147.8 21.6 .715 161
2024 09 10 08  22 55 58.518   +27 00 49.38  .68735 1.6303 147.8 21.6 .736 160
2024 09 10 09  22 55 56.004   +26 59 54.35  .68693 1.6300 147.8 21.6 .757 160
2024 09 10 10  22 55 53.490   +26 58 59.18  .68651 1.6297 147.9 21.6 .779 160
2024 09 10 11  22 55 50.973   +26 58 03.88  .68609 1.6294 147.9 21.6 .800 160
2024 09 10 12  22 55 48.455   +26 57 08.45  .68567 1.6291 147.9 21.6 .822 160